Regional Weather Roundup
Issued by NWS

Home | Current Version | Previous Version | Text Only | Print | Product List | Glossary On
Versions: 1 2 3 4 5 6 7 8 9 10 11 12 13 14 15 16 17 18 19 20 21 22 23 24 25 26 27 28 29 30 31 32 33 34 35 36 37 38 39 40 41 42 43 44 45 46 47 48 49 50
452
ASUS42 KKEY 131510
RWRKEY

FLORIDA REGIONAL WEATHER ROUNDUP FOR THE FLORIDA KEYS
NATIONAL WEATHER SERVICE KEY WEST FLORIDA
1000 AM EST SAT FEB 13 2016

...SOUTH FLORIDA AND THE KEYS...

CITY           SKY/WX    TMP DP  RH WIND       PRES   REMARKS
FORT MYERS     MOSUNNY   68  59  73 NW12      30.26R
SW REGIONAL AP MOSUNNY   69  58  67 NW12G17   30.27R
NAPLES         MOSUNNY   68  59  73 NW8       30.26S
MIAMI          MOSUNNY   68  57  68 NW10      30.27R
WEST KENDALL   SUNNY     68  59  73 N14G21    30.27R
HOMESTEAD      SUNNY     68  57  69 NW14      30.26R
MARATHON       SUNNY     67  58  72 N12       30.26R
BOCA CHICA NAS SUNNY     69  58  67 N12       30.27R
KEY WEST INTL  SUNNY     69  60  73 N12       30.27R

...INTERNATIONAL WEATHER...

CITY           SKY/WX    TMP DP  RH WIND       PRES   REMARKS
NASSAU BAHAMAS MOSUNNY   75  63  64 NW6       30.23
CANCUN MEXICO  MOSUNNY   77  59  53 NE8       30.22R
COZUMEL MEXICO MOSUNNY   73  63  68 NE17      30.21R

ADJACENT COASTAL WATERS...

STATION/POSITION TIME  SKY/WX   TEMP    WIND        PRES    WAVE
                                AIR SEA DIR/SP/G            HT/PER
                 (UTC)          (F)     (DEG/KT/KT) (MB)    (FT/S)
PULASKI SHOAL LI NOT AVBL
SAND KEY         1450            65      30/ 16/ 17 1025.3R
SOMBRERO KEY     NOT AVBL
LONG KEY         1400            63 64   10/ 12/ 13 1025.3R
MOLASSES REEF    1400            65 73  360/ 15/ 17 1024.1R
FOWEY ROCKS      NOT AVBL

$$




USA.gov is the U.S. government's official web portal to all federal, state and local government web resources and services.